Time,TemperatureF,DewpointF,PressureIn,WindDirection,WindDirectionDegrees,WindSpeedMPH,WindSpeedGustMPH,Humidity,HourlyPrecipIn,Conditions,Clouds,dailyrainin,SoftwareType,DateUTC
2013-05-22 00:14:00,68.6,61.0,29.68,SE,145,0.0,0.0,77,0.00,,,0.00,weatherlink.com 1.10,2013-05-22 04:14:00,
2013-05-22 00:29:00,68.3,61.0,29.68,SE,145,0.0,0.0,77,0.00,,,0.00,weatherlink.com 1.10,2013-05-22 04:29:00,
2013-05-22 00:44:00,67.8,60.0,29.68,SE,145,0.0,0.0,76,0.00,,,0.00,weatherlink.com 1.10,2013-05-22 04:44:00,
2013-05-22 00:59:00,67.4,60.0,29.68,SE,145,0.0,0.0,76,0.00,,,0.00,weatherlink.com 1.10,2013-05-22 04:59:00,
2013-05-22 01:14:00,67.4,59.0,29.68,SE,145,0.0,0.0,75,0.00,,,0.00,weatherlink.com 1.10,2013-05-22 05:14:00,
2013-05-22 01:29:00,67.2,59.0,29.68,SE,146,0.0,0.0,75,0.00,,,0.00,weatherlink.com 1.10,2013-05-22 05:29:00,
2013-05-22 01:44:00,66.9,59.0,29.68,SSE,149,0.0,0.0,75,0.00,,,0.00,weatherlink.com 1.10,2013-05-22 05:44:00,
2013-05-22 01:59:00,66.3,58.0,29.68,SSE,149,0.0,0.0,75,0.00,,,0.00,weatherlink.com 1.10,2013-05-22 05:59:00,
2013-05-22 02:14:00,66.0,58.0,29.68,SSE,149,0.0,0.0,74,0.00,,,0.00,weatherlink.com 1.10,2013-05-22 06:14:00,
2013-05-22 02:29:00,66.3,57.0,29.68,SSE,149,0.0,0.0,73,0.00,,,0.00,weatherlink.com 1.10,2013-05-22 06:29:00,
2013-05-22 02:44:00,66.5,58.0,29.68,SSE,149,0.0,0.0,74,0.00,,,0.00,weatherlink.com 1.10,2013-05-22 06:44:00,
2013-05-22 02:59:00,66.5,58.0,29.67,SSE,165,0.0,0.0,73,0.00,,,0.00,weatherlink.com 1.10,2013-05-22 06:59:00,
2013-05-22 03:14:00,66.9,58.0,29.67,SSE,148,0.0,0.0,73,0.00,,,0.00,weatherlink.com 1.10,2013-05-22 07:14:00,
2013-05-22 03:29:00,67.1,58.0,29.67,SE,139,0.0,0.0,73,0.00,,,0.00,weatherlink.com 1.10,2013-05-22 07:29:00,
2013-05-22 03:44:00,67.1,58.0,29.68,SE,141,0.0,0.0,72,0.02,,,0.02,weatherlink.com 1.10,2013-05-22 07:44:00,
2013-05-22 03:59:00,66.7,57.0,29.67,SSE,155,0.0,0.0,72,0.06,,,0.06,weatherlink.com 1.10,2013-05-22 07:59:00,
2013-05-22 04:14:00,66.5,57.0,29.67,SSE,167,0.0,0.0,71,0.06,,,0.06,weatherlink.com 1.10,2013-05-22 08:14:00,
2013-05-22 04:29:00,66.4,57.0,29.67,SSE,167,0.0,0.0,71,0.06,,,0.06,weatherlink.com 1.10,2013-05-22 08:29:00,
2013-05-22 04:44:00,66.3,57.0,29.66,SSE,168,0.0,0.0,71,0.05,,,0.07,weatherlink.com 1.10,2013-05-22 08:44:00,
2013-05-22 04:59:00,66.4,57.0,29.66,SSW,201,0.0,0.0,71,0.01,,,0.07,weatherlink.com 1.10,2013-05-22 08:59:00,
2013-05-22 05:14:00,66.4,57.0,29.66,SSW,200,0.0,0.0,71,0.01,,,0.07,weatherlink.com 1.10,2013-05-22 09:14:00,
2013-05-22 05:29:00,66.5,57.0,29.67,WNW,295,2.0,4.0,71,0.01,,,0.07,weatherlink.com 1.10,2013-05-22 09:29:00,
2013-05-22 05:44:00,65.6,56.0,29.68,WSW,250,1.0,7.0,72,0.00,,,0.07,weatherlink.com 1.10,2013-05-22 09:44:00,
2013-05-22 06:00:00,64.9,56.0,29.68,WNW,296,0.0,4.0,73,0.00,,,0.07,weatherlink.com 1.10,2013-05-22 10:00:00,
2013-05-22 06:15:00,64.4,55.0,29.68,WNW,295,0.0,3.0,72,0.00,,,0.07,weatherlink.com 1.10,2013-05-22 10:15:00,
2013-05-22 06:30:00,64.1,55.0,29.68,WSW,252,1.0,2.0,72,0.01,,,0.08,weatherlink.com 1.10,2013-05-22 10:30:00,
2013-05-22 06:45:00,64.0,55.0,29.68,South,190,0.0,1.0,72,0.03,,,0.10,weatherlink.com 1.10,2013-05-22 10:45:00,
2013-05-22 07:00:00,64.0,55.0,29.68,South,190,0.0,1.0,72,0.03,,,0.10,weatherlink.com 1.10,2013-05-22 11:00:00,
2013-05-22 07:15:00,64.1,55.0,29.67,South,190,0.0,1.0,72,0.03,,,0.10,weatherlink.com 1.10,2013-05-22 11:15:00,
2013-05-22 07:30:00,64.3,55.0,29.67,SE,127,0.0,1.0,72,0.02,,,0.10,weatherlink.com 1.10,2013-05-22 11:30:00,
2013-05-22 07:45:00,64.8,56.0,29.67,SE,127,0.0,1.0,72,0.00,,,0.10,weatherlink.com 1.10,2013-05-22 11:45:00,
2013-05-22 08:00:00,65.3,56.0,29.67,SSE,163,0.0,1.0,73,0.00,,,0.10,weatherlink.com 1.10,2013-05-22 12:00:00,
2013-05-22 08:15:00,65.6,57.0,29.66,SE,136,0.0,1.0,73,0.00,,,0.10,weatherlink.com 1.10,2013-05-22 12:15:00,
2013-05-22 08:30:00,66.0,57.0,29.66,NE,41,1.0,2.0,72,0.00,,,0.10,weatherlink.com 1.10,2013-05-22 12:30:00,
2013-05-22 08:45:00,66.2,57.0,29.65,South,183,0.0,2.0,72,0.00,,,0.10,weatherlink.com 1.10,2013-05-22 12:45:00,
2013-05-22 09:00:00,66.4,57.0,29.65,South,174,1.0,1.0,72,0.00,,,0.10,weatherlink.com 1.10,2013-05-22 13:00:00,
2013-05-22 09:15:00,66.8,57.0,29.64,SE,141,0.0,1.0,72,0.01,,,0.11,weatherlink.com 1.10,2013-05-22 13:15:00,
2013-05-22 09:30:00,67.2,57.0,29.64,SE,128,1.0,2.0,71,0.01,,,0.11,weatherlink.com 1.10,2013-05-22 13:30:00,
2013-05-22 09:45:00,67.5,58.0,29.64,SSE,149,0.0,3.0,71,0.01,,,0.11,weatherlink.com 1.10,2013-05-22 13:45:00,
2013-05-22 09:59:00,67.2,57.0,29.64,East,96,0.0,5.0,71,0.03,,,0.13,weatherlink.com 1.10,2013-05-22 13:59:00,
2013-05-22 10:14:00,66.9,57.0,29.63,South,181,0.0,2.0,71,0.04,,,0.15,weatherlink.com 1.10,2013-05-22 14:14:00,
2013-05-22 10:29:00,67.2,57.0,29.63,ESE,117,0.0,1.0,71,0.04,,,0.15,weatherlink.com 1.10,2013-05-22 14:29:00,
2013-05-22 10:44:00,67.1,57.0,29.62,SE,137,0.0,2.0,71,0.06,,,0.17,weatherlink.com 1.10,2013-05-22 14:44:00,
2013-05-22 10:59:00,67.1,57.0,29.62,ESE,114,0.0,2.0,71,0.04,,,0.17,weatherlink.com 1.10,2013-05-22 14:59:00,
2013-05-22 11:14:00,67.1,57.0,29.62,SSE,162,0.0,3.0,71,0.03,,,0.18,weatherlink.com 1.10,2013-05-22 15:14:00,
2013-05-22 11:29:00,67.7,58.0,29.61,SSW,205,0.0,5.0,71,0.03,,,0.18,weatherlink.com 1.10,2013-05-22 15:29:00,
2013-05-22 11:44:00,67.8,58.0,29.61,SSE,159,0.0,4.0,71,0.04,,,0.21,weatherlink.com 1.10,2013-05-22 15:44:00,
2013-05-22 11:59:00,67.5,58.0,29.61,SSE,162,1.0,6.0,71,0.07,,,0.24,weatherlink.com 1.10,2013-05-22 15:59:00,
2013-05-22 12:14:00,67.5,58.0,29.61,SW,226,7.0,12.0,71,0.08,,,0.26,weatherlink.com 1.10,2013-05-22 16:14:00,
2013-05-22 12:29:00,67.4,58.0,29.62,SSE,166,3.0,6.0,71,0.10,,,0.28,weatherlink.com 1.10,2013-05-22 16:29:00,
2013-05-22 12:44:00,66.6,57.0,29.62,ESE,114,1.0,8.0,71,0.20,,,0.42,weatherlink.com 1.10,2013-05-22 16:44:00,
2013-05-22 12:59:00,66.6,57.0,29.62,WSW,255,8.0,8.0,71,0.21,,,0.45,weatherlink.com 1.10,2013-05-22 16:59:00,
2013-05-22 13:14:00,66.4,57.0,29.62,West,277,1.0,7.0,71,0.20,,,0.46,weatherlink.com 1.10,2013-05-22 17:14:00,
2013-05-22 13:29:00,67.7,58.0,29.61,SW,225,1.0,7.0,72,0.17,,,0.46,weatherlink.com 1.10,2013-05-22 17:29:00,
2013-05-22 13:44:00,68.1,59.0,29.61,West,264,2.0,11.0,73,0.04,,,0.46,weatherlink.com 1.10,2013-05-22 17:44:00,
2013-05-22 13:59:00,68.7,62.0,29.61,SE,133,6.0,13.0,78,0.01,,,0.46,weatherlink.com 1.10,2013-05-22 17:59:00,
2013-05-22 14:14:00,69.8,62.0,29.60,NNW,343,1.0,13.0,76,0.00,,,0.46,weatherlink.com 1.10,2013-05-22 18:14:00,
2013-05-22 14:29:00,69.8,63.0,29.61,NW,314,5.0,13.0,78,0.00,,,0.46,weatherlink.com 1.10,2013-05-22 18:29:00,
2013-05-22 14:44:00,69.7,63.0,29.61,West,281,4.0,14.0,78,0.00,,,0.46,weatherlink.com 1.10,2013-05-22 18:44:00,
2013-05-22 14:59:00,69.9,63.0,29.61,SSW,198,8.0,14.0,79,0.00,,,0.46,weatherlink.com 1.10,2013-05-22 18:59:00,
2013-05-22 15:14:00,69.3,62.0,29.62,West,278,3.0,18.0,78,0.00,,,0.46,weatherlink.com 1.10,2013-05-22 19:14:00,
2013-05-22 15:29:00,68.1,61.0,29.63,WNW,289,5.0,13.0,77,0.00,,,0.46,weatherlink.com 1.10,2013-05-22 19:29:00,
2013-05-22 15:44:00,67.3,60.0,29.64,WSW,257,6.0,13.0,76,0.00,,,0.46,weatherlink.com 1.10,2013-05-22 19:44:00,
2013-05-22 15:59:00,66.4,58.0,29.64,SW,235,5.0,8.0,73,0.03,,,0.49,weatherlink.com 1.10,2013-05-22 19:59:00,
2013-05-22 16:14:00,66.1,56.0,29.64,West,276,0.0,8.0,71,0.03,,,0.49,weatherlink.com 1.10,2013-05-22 20:14:00,
2013-05-22 16:29:00,65.5,57.0,29.64,WNW,283,5.0,9.0,73,0.04,,,0.50,weatherlink.com 1.10,2013-05-22 20:29:00,
2013-05-22 16:44:00,64.2,56.0,29.65,NW,306,2.0,11.0,74,0.03,,,0.50,weatherlink.com 1.10,2013-05-22 20:44:00,
2013-05-22 17:00:00,63.5,55.0,29.64,West,271,2.0,8.0,75,0.01,,,0.50,weatherlink.com 1.10,2013-05-22 21:00:00,
2013-05-22 17:15:00,63.5,55.0,29.63,SSW,212,1.0,7.0,75,0.01,,,0.50,weatherlink.com 1.10,2013-05-22 21:15:00,
2013-05-22 17:30:00,63.8,56.0,29.62,WNW,287,1.0,4.0,75,0.00,,,0.50,weatherlink.com 1.10,2013-05-22 21:30:00,
2013-05-22 17:45:00,64.1,56.0,29.62,SE,146,1.0,4.0,76,0.00,,,0.50,weatherlink.com 1.10,2013-05-22 21:45:00,
2013-05-22 18:00:00,64.7,57.0,29.63,SW,235,2.0,4.0,77,0.00,,,0.50,weatherlink.com 1.10,2013-05-22 22:00:00,
2013-05-22 18:15:00,64.6,57.0,29.63,South,180,7.0,7.0,77,0.00,,,0.50,weatherlink.com 1.10,2013-05-22 22:15:00,
2013-05-22 18:30:00,65.4,58.0,29.62,WSW,251,1.0,4.0,78,0.00,,,0.50,weatherlink.com 1.10,2013-05-22 22:30:00,
2013-05-22 18:45:00,65.1,58.0,29.63,South,188,0.0,6.0,78,0.00,,,0.50,weatherlink.com 1.10,2013-05-22 22:45:00,
2013-05-22 19:00:00,65.1,58.0,29.63,West,280,1.0,6.0,79,0.00,,,0.50,weatherlink.com 1.10,2013-05-22 23:00:00,
2013-05-22 19:15:00,64.9,58.0,29.64,WSW,253,3.0,8.0,79,0.00,,,0.50,weatherlink.com 1.10,2013-05-22 23:15:00,
2013-05-22 19:30:00,64.5,58.0,29.64,WSW,253,3.0,7.0,78,0.00,,,0.50,weatherlink.com 1.10,2013-05-22 23:30:00,
2013-05-22 19:45:00,64.5,57.0,29.64,West,263,1.0,4.0,77,0.00,,,0.50,weatherlink.com 1.10,2013-05-22 23:45:00,
2013-05-22 20:00:00,64.3,57.0,29.65,WSW,250,3.0,5.0,77,0.00,,,0.50,weatherlink.com 1.10,2013-05-23 00:00:00,
2013-05-22 20:15:00,63.8,56.0,29.65,WNW,301,2.0,7.0,77,0.00,,,0.50,weatherlink.com 1.10,2013-05-23 00:15:00,
2013-05-22 20:30:00,63.0,55.0,29.66,WSW,256,1.0,7.0,76,0.00,,,0.50,weatherlink.com 1.10,2013-05-23 00:30:00,
2013-05-22 20:45:00,62.1,54.0,29.66,SW,231,2.0,6.0,75,0.00,,,0.50,weatherlink.com 1.10,2013-05-23 00:45:00,
2013-05-22 21:00:00,61.3,53.0,29.67,WNW,298,2.0,6.0,74,0.00,,,0.50,weatherlink.com 1.10,2013-05-23 01:00:00,
2013-05-22 21:15:00,60.7,52.0,29.67,SSW,197,2.0,7.0,74,0.00,,,0.50,weatherlink.com 1.10,2013-05-23 01:15:00,
2013-05-22 21:30:00,60.1,51.0,29.68,WSW,256,2.0,5.0,73,0.00,,,0.50,weatherlink.com 1.10,2013-05-23 01:30:00,
2013-05-22 21:45:00,59.3,51.0,29.68,WNW,300,2.0,7.0,73,0.00,,,0.50,weatherlink.com 1.10,2013-05-23 01:45:00,
2013-05-22 22:00:00,58.7,50.0,29.68,West,280,3.0,5.0,73,0.00,,,0.50,weatherlink.com 1.10,2013-05-23 02:00:00,
2013-05-22 22:15:00,58.2,50.0,29.68,West,270,2.0,6.0,73,0.00,,,0.50,weatherlink.com 1.10,2013-05-23 02:15:00,
2013-05-22 22:30:00,57.8,50.0,29.68,WSW,250,1.0,4.0,74,0.00,,,0.50,weatherlink.com 1.10,2013-05-23 02:30:00,
2013-05-22 22:45:00,57.5,49.0,29.69,WSW,258,0.0,3.0,74,0.00,,,0.50,weatherlink.com 1.10,2013-05-23 02:45:00,
2013-05-22 23:00:00,57.4,49.0,29.70,WNW,282,2.0,4.0,74,0.00,,,0.50,weatherlink.com 1.10,2013-05-23 03:00:00,
2013-05-22 23:15:00,57.4,50.0,29.69,WNW,290,1.0,5.0,75,0.00,,,0.50,weatherlink.com 1.10,2013-05-23 03:15:00,
2013-05-22 23:30:00,57.2,49.0,29.69,West,270,4.0,5.0,75,0.00,,,0.50,weatherlink.com 1.10,2013-05-23 03:30:00,
2013-05-22 23:45:00,57.1,49.0,29.69,WNW,287,2.0,5.0,75,0.00,,,0.50,weatherlink.com 1.10,2013-05-23 03:45:00,